Location: Bishop�s Knoyle
(51.0728°N, 2.1714°W)
Time: 14:31:15
(UTC+00:00)

NOSS 3-4 (C) - Pass Details

Date: 21 January 2021
Orbit: 878 x 1335 km, 63.4° (Epoch: 16 February)

Event Time Altitude Azimuth Distance (km) Brightness Sun altitude
Rises 17:07:40 0° 238° (WSW) 3,483 9.1 -4.5°
Reaches altitude 10° 17:10:07 10° 242° (WSW) 2,569 7.7 -4.9°
Maximum altitude 17:16:00 61° 322° (NW) 1,068 3.9 -5.7°
Drops below altitude 10° 17:22:26 10° 43° (NE) 2,805 5.3 -6.6°
Enters shadow 17:23:38 - 45° (NE) 3,243 5.6 -6.8°
